DLH459 EDDH-LOWW

Flight info

Callsign DLH459
Flight time 1h 19m
Altitude 36000
Route RAMA6C RAMAR BUMIL GURLO ERNUD SOGMA GENTI SUKIP ESIKA MOSEX BOLBO OLBIK OSKAN RENDO ESLOR HD0 MIKOV MIKO8W
Aircraft A320/M-V/N

Departure

Time 2026-05-06 10:46
Airport Hamburg Helmut Schmidt Airport (EDDH)

Arrival

Time 2026-05-06 12:05
Airport Vienna International Airport (LOWW)
Time Latitude Longitude Altitude Speed Heading
2026-05-06 10:05 53.63169 10.00367 51 ft 0 kts 87°
2026-05-06 10:29 53.63169 10.00350 51 ft 2 kts 87°
2026-05-06 10:30 53.63168 10.00328 51 ft 2 kts 87°
2026-05-06 10:30 53.63167 10.00307 51 ft 2 kts 87°
2026-05-06 10:30 53.63168 10.00283 51 ft 2 kts 113°
2026-05-06 10:30 53.63176 10.00263 47 ft 2 kts 137°
2026-05-06 10:31 53.63188 10.00251 51 ft 2 kts 173°
2026-05-06 10:31 53.63202 10.00248 49 ft 2 kts 177°
2026-05-06 10:31 53.63216 10.00247 51 ft 2 kts 176°
2026-05-06 10:31 53.63221 10.00247 51 ft 0 kts 176°
2026-05-06 10:37 53.63196 10.00249 50 ft 5 kts 176°
2026-05-06 10:38 53.63157 10.00254 49 ft 5 kts 176°
2026-05-06 10:38 53.63121 10.00258 50 ft 5 kts 176°
2026-05-06 10:38 53.63086 10.00262 49 ft 5 kts 176°
2026-05-06 10:38 53.63058 10.00248 50 ft 4 kts 211°
2026-05-06 10:39 53.63026 10.00216 50 ft 8 kts 212°
2026-05-06 10:39 53.62966 10.00152 47 ft 11 kts 212°
2026-05-06 10:39 53.62894 10.00075 50 ft 12 kts 214°
2026-05-06 10:39 53.62841 10.00000 50 ft 8 kts 211°
2026-05-06 10:40 53.62789 9.99948 50 ft 10 kts 211°
2026-05-06 10:40 53.62718 9.99883 49 ft 14 kts 208°
2026-05-06 10:40 53.62642 9.99776 50 ft 15 kts 248°
2026-05-06 10:40 53.62620 9.99598 48 ft 17 kts 259°
2026-05-06 10:41 53.62597 9.99391 50 ft 19 kts 259°
2026-05-06 10:41 53.62569 9.99151 50 ft 22 kts 259°
2026-05-06 10:41 53.62538 9.98877 50 ft 25 kts 259°
2026-05-06 10:41 53.62503 9.98569 50 ft 28 kts 259°
2026-05-06 10:42 53.62462 9.98226 49 ft 31 kts 255°
2026-05-06 10:42 53.62340 9.97911 50 ft 34 kts 230°
2026-05-06 10:42 53.62183 9.97591 50 ft 37 kts 231°
2026-05-06 10:42 53.62012 9.97245 50 ft 40 kts 230°
2026-05-06 10:43 53.61862 9.96943 50 ft 28 kts 230°
2026-05-06 10:43 53.61744 9.96705 50 ft 26 kts 230°
2026-05-06 10:43 53.61668 9.96498 50 ft 18 kts 278°
2026-05-06 10:44 53.61838 9.96436 47 ft 12 kts 17°
2026-05-06 10:44 53.61891 9.96509 47 ft 9 kts 50°
2026-05-06 10:44 53.61902 9.96530 47 ft 0 kts 50°
2026-05-06 10:45 53.61942 9.96612 46 ft 34 kts 50°
2026-05-06 10:45 53.62228 9.97188 48 ft 93 kts 50°
2026-05-06 10:45 53.62764 9.98271 48 ft 147 kts 50°
2026-05-06 10:45 53.63488 9.99724 471 ft 165 kts 50°
2026-05-06 10:46 53.64228 10.01202 1196 ft 166 kts 49°
2026-05-06 10:46 53.65007 10.02765 1712 ft 181 kts 49°
2026-05-06 10:46 53.65854 10.04461 2220 ft 194 kts 50°
2026-05-06 10:46 53.66618 10.06322 2702 ft 196 kts 59°
2026-05-06 10:47 53.67215 10.08374 3193 ft 195 kts 68°
2026-05-06 10:47 53.67613 10.10580 3654 ft 193 kts 73°
2026-05-06 10:47 53.68170 10.12718 4019 ft 207 kts 60°
2026-05-06 10:47 53.68969 10.14726 4421 ft 208 kts 54°
2026-05-06 10:48 53.69811 10.16670 4820 ft 202 kts 52°
2026-05-06 10:48 53.70674 10.18598 4941 ft 212 kts 52°
2026-05-06 10:48 53.71589 10.20642 5030 ft 224 kts 52°
2026-05-06 10:48 53.72460 10.22938 4902 ft 233 kts 63°
2026-05-06 10:49 53.73023 10.25422 4892 ft 220 kts 74°
2026-05-06 10:49 53.73406 10.27873 4970 ft 210 kts 75°
2026-05-06 10:49 53.73749 10.30198 5173 ft 199 kts 76°
2026-05-06 10:49 53.74068 10.32421 5306 ft 191 kts 76°
2026-05-06 10:50 53.74259 10.34640 5391 ft 199 kts 90°
2026-05-06 10:50 53.73999 10.36968 5637 ft 206 kts 113°
2026-05-06 10:50 53.73162 10.38921 5992 ft 208 kts 142°
2026-05-06 10:50 53.71895 10.40026 6416 ft 204 kts 161°
2026-05-06 10:51 53.70565 10.40867 6858 ft 208 kts 163°
2026-05-06 10:51 53.69165 10.41693 7322 ft 217 kts 163°
2026-05-06 10:51 53.67733 10.42723 7793 ft 224 kts 154°
2026-05-06 10:51 53.66360 10.43975 8273 ft 224 kts 153°
2026-05-06 10:52 53.65010 10.45254 8724 ft 227 kts 152°
2026-05-06 10:52 53.63715 10.46800 9215 ft 229 kts 144°
2026-05-06 10:52 53.62452 10.48444 9705 ft 230 kts 144°
2026-05-06 10:52 53.61183 10.50107 10176 ft 233 kts 144°
2026-05-06 10:53 53.59948 10.51917 10618 ft 236 kts 139°
2026-05-06 10:53 53.58729 10.53797 11039 ft 241 kts 140°
2026-05-06 10:53 53.57450 10.55765 11338 ft 256 kts 140°
2026-05-06 10:53 53.56088 10.57838 11804 ft 273 kts 140°
2026-05-06 10:54 53.54616 10.60051 12266 ft 294 kts 140°
2026-05-06 10:54 53.53032 10.62414 12716 ft 315 kts 140°
2026-05-06 10:54 53.51338 10.64923 13210 ft 334 kts 140°
2026-05-06 10:54 53.49553 10.67554 13720 ft 350 kts 140°
2026-05-06 10:55 53.47686 10.70294 14186 ft 364 kts 141°
2026-05-06 10:55 53.45746 10.73132 14683 ft 376 kts 141°
2026-05-06 10:55 53.43735 10.76062 15139 ft 389 kts 141°
2026-05-06 10:55 53.41654 10.79084 15606 ft 401 kts 141°
2026-05-06 10:56 53.39530 10.82160 16065 ft 407 kts 141°
2026-05-06 10:56 53.37363 10.85289 16342 ft 416 kts 141°
2026-05-06 10:56 53.35151 10.88473 16570 ft 419 kts 141°
2026-05-06 10:56 53.32940 10.91659 16665 ft 421 kts 141°
2026-05-06 10:57 53.30718 10.94856 16793 ft 422 kts 141°
2026-05-06 10:57 53.28487 10.98062 17163 ft 423 kts 141°
2026-05-06 10:57 53.26256 11.01266 17618 ft 423 kts 141°
2026-05-06 10:57 53.24025 11.04468 18069 ft 424 kts 141°
2026-05-06 10:58 53.21783 11.07677 18504 ft 427 kts 142°
2026-05-06 10:58 53.19517 11.10913 18934 ft 430 kts 142°
2026-05-06 10:58 53.17244 11.14157 19356 ft 431 kts 142°
2026-05-06 10:58 53.14961 11.17414 19798 ft 432 kts 142°
2026-05-06 10:59 53.12674 11.20674 20247 ft 433 kts 142°
2026-05-06 10:59 53.10384 11.23937 20709 ft 433 kts 142°
2026-05-06 10:59 53.08124 11.27150 21171 ft 433 kts 142°
2026-05-06 10:59 53.05834 11.30402 21656 ft 433 kts 142°
2026-05-06 11:00 53.03549 11.33648 22141 ft 432 kts 142°
2026-05-06 11:00 53.01258 11.36904 22635 ft 436 kts 143°
2026-05-06 11:00 52.98968 11.40293 23131 ft 445 kts 140°
2026-05-06 11:00 52.96709 11.43849 23616 ft 451 kts 140°
2026-05-06 11:01 52.94417 11.47456 24036 ft 457 kts 140°
2026-05-06 11:01 52.92094 11.51093 24484 ft 462 kts 140°
2026-05-06 11:01 52.89743 11.54755 24953 ft 466 kts 141°
2026-05-06 11:01 52.87290 11.58307 25387 ft 469 kts 144°
2026-05-06 11:02 52.84767 11.61769 25828 ft 473 kts 145°
2026-05-06 11:02 52.82220 11.65245 26307 ft 476 kts 145°
2026-05-06 11:02 52.79663 11.68734 26788 ft 478 kts 145°
2026-05-06 11:02 52.77931 11.71101 27106 ft 477 kts 145°
2026-05-06 11:03 52.75414 11.74545 27582 ft 476 kts 145°
2026-05-06 11:03 52.72834 11.78066 28065 ft 474 kts 146°
2026-05-06 11:03 52.70384 11.81724 28554 ft 476 kts 140°
2026-05-06 11:03 52.68066 11.85514 29048 ft 475 kts 140°
2026-05-06 11:04 52.65679 11.89393 29555 ft 476 kts 141°
2026-05-06 11:04 52.63348 11.93167 30038 ft 476 kts 141°
2026-05-06 11:04 52.60984 11.96980 30497 ft 475 kts 141°
2026-05-06 11:04 52.58627 12.00783 30970 ft 474 kts 141°
2026-05-06 11:05 52.56246 12.04625 31448 ft 472 kts 141°
2026-05-06 11:05 52.53906 12.08373 31928 ft 468 kts 142°
2026-05-06 11:05 52.51483 12.11791 32409 ft 463 kts 148°
2026-05-06 11:05 52.48915 12.14961 32918 ft 462 kts 149°
2026-05-06 11:06 52.46333 12.18115 33439 ft 463 kts 149°
2026-05-06 11:06 52.43752 12.21272 33933 ft 463 kts 149°
2026-05-06 11:06 52.41183 12.24455 34394 ft 463 kts 148°
2026-05-06 11:06 52.38621 12.27656 34833 ft 463 kts 148°
2026-05-06 11:07 52.36131 12.31029 35287 ft 465 kts 144°
2026-05-06 11:07 52.33741 12.34631 35510 ft 472 kts 141°
2026-05-06 11:07 52.31346 12.38342 35697 ft 477 kts 141°
2026-05-06 11:08 52.26424 12.45897 35796 ft 492 kts 144°
2026-05-06 11:08 52.22227 12.52365 35810 ft 505 kts 137°
2026-05-06 11:09 52.18929 12.58270 35797 ft 501 kts 136°
2026-05-06 11:09 52.14286 12.66550 35789 ft 493 kts 137°
2026-05-06 11:10 52.09539 12.74585 35783 ft 488 kts 139°
2026-05-06 11:10 52.04771 12.82267 35783 ft 477 kts 141°
2026-05-06 11:11 52.00025 12.89618 35774 ft 467 kts 142°
2026-05-06 11:11 51.95302 12.96708 35774 ft 460 kts 142°
2026-05-06 11:12 51.90569 13.03635 35770 ft 457 kts 143°
2026-05-06 11:12 51.85850 13.10410 35777 ft 457 kts 143°
2026-05-06 11:13 51.81022 13.17241 35774 ft 459 kts 144°
2026-05-06 11:13 51.76220 13.23967 35775 ft 460 kts 144°
2026-05-06 11:14 51.71358 13.30722 35771 ft 462 kts 144°
2026-05-06 11:14 51.66481 13.37456 35773 ft 462 kts 144°
2026-05-06 11:15 51.61584 13.44183 35772 ft 463 kts 144°
2026-05-06 11:15 51.56672 13.50904 35777 ft 464 kts 144°
2026-05-06 11:16 51.51749 13.57611 35771 ft 464 kts 144°
2026-05-06 11:16 51.46814 13.64312 35776 ft 465 kts 144°
2026-05-06 11:17 51.41873 13.70999 35780 ft 465 kts 144°
2026-05-06 11:17 51.36917 13.77682 35788 ft 466 kts 144°
2026-05-06 11:18 51.31956 13.84350 35789 ft 466 kts 144°
2026-05-06 11:18 51.26982 13.91012 35790 ft 467 kts 145°
2026-05-06 11:19 51.21999 13.97659 35796 ft 467 kts 145°
2026-05-06 11:19 51.17026 14.04270 35788 ft 463 kts 145°
2026-05-06 11:20 51.12128 14.10750 35785 ft 459 kts 145°
2026-05-06 11:20 51.07231 14.17188 35780 ft 455 kts 145°
2026-05-06 11:21 51.02437 14.23715 35771 ft 453 kts 144°
2026-05-06 11:21 50.97702 14.30263 35900 ft 451 kts 144°
2026-05-06 11:22 50.92874 14.36557 35802 ft 447 kts 148°
2026-05-06 11:22 50.87882 14.42354 35775 ft 443 kts 150°
2026-05-06 11:23 50.82848 14.48033 35771 ft 440 kts 150°
2026-05-06 11:23 50.77898 14.53547 35774 ft 437 kts 150°
2026-05-06 11:24 50.72936 14.59037 35771 ft 434 kts 151°
2026-05-06 11:24 50.67991 14.64477 35789 ft 432 kts 151°
2026-05-06 11:25 50.63066 14.69872 35780 ft 430 kts 151°
2026-05-06 11:25 50.58158 14.75226 35792 ft 428 kts 151°
2026-05-06 11:26 50.53265 14.80544 35782 ft 427 kts 151°
2026-05-06 11:26 50.48386 14.85833 35785 ft 425 kts 151°
2026-05-06 11:27 50.43523 14.91090 35792 ft 424 kts 151°
2026-05-06 11:27 50.38675 14.96317 35795 ft 423 kts 151°
2026-05-06 11:28 50.33830 15.01526 35795 ft 422 kts 152°
2026-05-06 11:28 50.28994 15.06714 35799 ft 421 kts 152°
2026-05-06 11:29 50.24150 15.11893 35800 ft 425 kts 152°
2026-05-06 11:29 50.19212 15.17153 35807 ft 433 kts 152°
2026-05-06 11:30 50.14184 15.22498 35808 ft 441 kts 151°
2026-05-06 11:30 50.09095 15.27902 35811 ft 444 kts 151°
2026-05-06 11:31 50.04036 15.33276 35810 ft 436 kts 151°
2026-05-06 11:31 49.99010 15.38595 35823 ft 439 kts 152°
2026-05-06 11:32 49.93937 15.43942 35818 ft 441 kts 152°
2026-05-06 11:32 49.91444 15.46575 35810 ft 423 kts 152°
2026-05-06 11:32 49.89063 15.49100 35818 ft 408 kts 152°
2026-05-06 11:33 49.84387 15.54018 35819 ft 408 kts 152°
2026-05-06 11:33 49.79650 15.58958 35821 ft 413 kts 152°
2026-05-06 11:34 49.74898 15.63909 35820 ft 411 kts 152°
2026-05-06 11:34 49.70166 15.68833 35824 ft 410 kts 152°
2026-05-06 11:35 49.65427 15.73753 35820 ft 411 kts 152°
2026-05-06 11:35 49.60684 15.78670 35815 ft 410 kts 152°
2026-05-06 11:36 49.55978 15.83539 35820 ft 410 kts 152°
2026-05-06 11:36 49.51236 15.88430 35820 ft 410 kts 152°
2026-05-06 11:37 49.46489 15.93318 35819 ft 411 kts 152°
2026-05-06 11:37 49.41742 15.98194 35821 ft 410 kts 152°
2026-05-06 11:38 49.36997 16.03058 35823 ft 410 kts 152°
2026-05-06 11:38 49.32247 16.07914 35829 ft 411 kts 153°
2026-05-06 11:39 49.27485 16.12770 35827 ft 411 kts 153°
2026-05-06 11:39 49.22733 16.17607 35813 ft 410 kts 153°
2026-05-06 11:39 49.20337 16.20041 35431 ft 416 kts 153°
2026-05-06 11:40 49.17940 16.22473 34984 ft 411 kts 153°
2026-05-06 11:40 49.15575 16.24881 34537 ft 405 kts 153°
2026-05-06 11:40 49.13252 16.27256 34100 ft 399 kts 153°
2026-05-06 11:40 49.10962 16.29602 33641 ft 394 kts 153°
2026-05-06 11:41 49.08693 16.31926 33152 ft 392 kts 153°
2026-05-06 11:41 49.06438 16.34240 32683 ft 389 kts 153°
2026-05-06 11:41 49.04198 16.36539 32196 ft 387 kts 153°
2026-05-06 11:41 49.01973 16.38825 31727 ft 383 kts 153°
2026-05-06 11:42 48.99771 16.41073 31268 ft 378 kts 153°
2026-05-06 11:42 48.97584 16.43260 30809 ft 374 kts 153°
2026-05-06 11:42 48.95422 16.45422 30356 ft 370 kts 153°
2026-05-06 11:42 48.93278 16.47571 29924 ft 367 kts 153°
2026-05-06 11:43 48.91159 16.49710 29423 ft 364 kts 153°
2026-05-06 11:43 48.89089 16.51820 28941 ft 362 kts 153°
2026-05-06 11:43 48.86996 16.53957 28265 ft 364 kts 153°
2026-05-06 11:44 48.82799 16.58235 26888 ft 362 kts 153°
2026-05-06 11:44 48.80657 16.60191 26278 ft 356 kts 158°
2026-05-06 11:44 48.78457 16.61796 25768 ft 347 kts 163°
2026-05-06 11:44 48.76203 16.63004 25251 ft 340 kts 168°
2026-05-06 11:45 48.73955 16.64043 24753 ft 336 kts 168°
2026-05-06 11:45 48.71719 16.64988 24231 ft 331 kts 172°
2026-05-06 11:45 48.69491 16.65807 23764 ft 328 kts 171°
2026-05-06 11:45 48.67280 16.66619 23222 ft 326 kts 171°
2026-05-06 11:46 48.65065 16.67431 22415 ft 329 kts 171°
2026-05-06 11:46 48.62829 16.68250 21654 ft 332 kts 171°
2026-05-06 11:46 48.60574 16.68989 20920 ft 331 kts 176°
2026-05-06 11:46 48.58292 16.69090 20208 ft 327 kts 188°
2026-05-06 11:47 48.56082 16.68355 19563 ft 323 kts 201°
2026-05-06 11:47 48.54136 16.66840 19061 ft 308 kts 214°
2026-05-06 11:47 48.52558 16.64677 18523 ft 310 kts 225°
2026-05-06 11:47 48.50937 16.62544 17932 ft 309 kts 214°
2026-05-06 11:48 48.49129 16.60815 17327 ft 307 kts 213°
2026-05-06 11:48 48.47349 16.59072 16786 ft 303 kts 213°
2026-05-06 11:48 48.45594 16.57352 16254 ft 299 kts 213°
2026-05-06 11:48 48.44447 16.56225 15913 ft 297 kts 213°
2026-05-06 11:49 48.42729 16.54534 15397 ft 293 kts 213°
2026-05-06 11:49 48.41033 16.52861 14870 ft 290 kts 213°
2026-05-06 11:49 48.39331 16.51183 14109 ft 295 kts 213°
2026-05-06 11:49 48.37600 16.49474 13351 ft 299 kts 213°
2026-05-06 11:50 48.35331 16.47097 12310 ft 301 kts 220°
2026-05-06 11:50 48.33920 16.44776 11563 ft 302 kts 234°
2026-05-06 11:50 48.33206 16.42949 11217 ft 298 kts 241°
2026-05-06 11:50 48.32370 16.40135 10705 ft 292 kts 247°
2026-05-06 11:51 48.31670 16.37303 10232 ft 286 kts 251°
2026-05-06 11:51 48.31260 16.34397 9778 ft 283 kts 260°
2026-05-06 11:51 48.31216 16.31456 9308 ft 281 kts 271°
2026-05-06 11:51 48.31458 16.28562 8857 ft 277 kts 273°
2026-05-06 11:52 48.31712 16.25709 8416 ft 274 kts 274°
2026-05-06 11:52 48.32013 16.22927 7982 ft 273 kts 278°
2026-05-06 11:52 48.32591 16.20165 7515 ft 276 kts 290°
2026-05-06 11:52 48.33549 16.17725 7145 ft 269 kts 298°
2026-05-06 11:53 48.34439 16.15360 6893 ft 252 kts 293°
2026-05-06 11:53 48.35251 16.13094 6547 ft 242 kts 294°
2026-05-06 11:53 48.36056 16.10890 6104 ft 239 kts 294°
2026-05-06 11:53 48.36856 16.08742 5665 ft 230 kts 293°
2026-05-06 11:54 48.37472 16.06587 5193 ft 219 kts 280°
2026-05-06 11:54 48.37532 16.04371 4866 ft 199 kts 253°
2026-05-06 11:54 48.37024 16.02580 4869 ft 186 kts 229°
2026-05-06 11:54 48.36053 16.01343 4885 ft 183 kts 209°
2026-05-06 11:55 48.34921 16.00465 4814 ft 181 kts 198°
2026-05-06 11:55 48.33746 15.99977 4729 ft 171 kts 192°
2026-05-06 11:55 48.32593 15.99571 4634 ft 167 kts 191°
2026-05-06 11:55 48.31461 15.99506 4581 ft 161 kts 171°
2026-05-06 11:56 48.30475 16.00206 4502 ft 157 kts 145°
2026-05-06 11:56 48.29798 16.01515 4554 ft 165 kts 122°
2026-05-06 11:56 48.29290 16.03059 4687 ft 165 kts 125°
2026-05-06 11:56 48.28728 16.04550 4834 ft 167 kts 125°
2026-05-06 11:57 48.28140 16.06098 4836 ft 171 kts 126°
2026-05-06 11:57 48.27549 16.07634 4840 ft 168 kts 126°
2026-05-06 11:57 48.26974 16.09156 4833 ft 168 kts 124°
2026-05-06 11:57 48.26393 16.10672 4822 ft 166 kts 126°
2026-05-06 11:58 48.25806 16.12166 4774 ft 167 kts 125°
2026-05-06 11:58 48.25231 16.13685 4719 ft 168 kts 124°
2026-05-06 11:58 48.24702 16.15250 4702 ft 169 kts 120°
2026-05-06 11:58 48.24213 16.16851 4717 ft 168 kts 122°
2026-05-06 11:59 48.23684 16.18386 4722 ft 164 kts 124°
2026-05-06 11:59 48.23137 16.19908 4785 ft 168 kts 121°
2026-05-06 11:59 48.22660 16.21510 4816 ft 168 kts 119°
2026-05-06 11:59 48.22217 16.23133 4763 ft 168 kts 118°
2026-05-06 12:00 48.21742 16.24721 4703 ft 166 kts 123°
2026-05-06 12:00 48.21223 16.26266 4633 ft 165 kts 123°
2026-05-06 12:00 48.20707 16.27803 4502 ft 164 kts 122°
2026-05-06 12:00 48.20209 16.29326 4275 ft 162 kts 122°
2026-05-06 12:01 48.19725 16.30830 4022 ft 158 kts 122°
2026-05-06 12:01 48.19257 16.32307 3797 ft 156 kts 122°
2026-05-06 12:01 48.18777 16.33753 3547 ft 155 kts 122°
2026-05-06 12:01 48.18287 16.35189 3300 ft 156 kts 123°
2026-05-06 12:02 48.17788 16.36655 3054 ft 159 kts 122°
2026-05-06 12:02 48.17285 16.38141 2848 ft 160 kts 123°
2026-05-06 12:02 48.16788 16.39621 2678 ft 159 kts 123°
2026-05-06 12:02 48.16287 16.41082 2457 ft 157 kts 123°
2026-05-06 12:03 48.15802 16.42563 2197 ft 159 kts 121°
2026-05-06 12:03 48.15343 16.44060 1940 ft 156 kts 120°
2026-05-06 12:03 48.14882 16.45531 1695 ft 159 kts 121°
2026-05-06 12:03 48.14407 16.46967 1595 ft 153 kts 120°
2026-05-06 12:04 48.13946 16.48426 1362 ft 157 kts 119°
2026-05-06 12:04 48.13453 16.49872 1136 ft 157 kts 120°
2026-05-06 12:04 48.12967 16.51280 895 ft 149 kts 119°
2026-05-06 12:04 48.12502 16.52638 686 ft 143 kts 116°
2026-05-06 12:05 48.12086 16.53913 586 ft 129 kts 116°
2026-05-06 12:05 48.11770 16.54909 589 ft 72 kts 115°
2026-05-06 12:05 48.11630 16.55341 595 ft 33 kts 116°
2026-05-06 12:05 48.11562 16.55551 599 ft 15 kts 115°
2026-05-06 12:06 48.11531 16.55658 602 ft 7 kts 110°
2026-05-06 12:06 48.11519 16.55716 603 ft 5 kts 105°
2026-05-06 12:06 48.11510 16.55766 603 ft 5 kts 103°
2026-05-06 12:06 48.11502 16.55847 602 ft 11 kts 95°
2026-05-06 12:07 48.11503 16.55979 601 ft 14 kts 86°
2026-05-06 12:07 48.11508 16.56084 602 ft 7 kts 81°
2026-05-06 12:07 48.11530 16.56128 602 ft 4 kts 33°
2026-05-06 12:07 48.11534 16.56131 602 ft 0 kts 28°
2026-05-06 12:10 48.11539 16.56135 602 ft 2 kts 28°
2026-05-06 12:10 48.11557 16.56141 601 ft 3 kts 356°
2026-05-06 12:10 48.11581 16.56119 601 ft 5 kts 319°
2026-05-06 12:10 48.11598 16.56084 601 ft 2 kts 294°
2026-05-06 12:11 48.11606 16.56059 602 ft 3 kts 294°
2026-05-06 12:11 48.11617 16.56023 602 ft 4 kts 295°
2026-05-06 12:11 48.11633 16.55975 603 ft 6 kts 295°
2026-05-06 12:11 48.11655 16.55907 603 ft 9 kts 296°
2026-05-06 12:12 48.11688 16.55805 600 ft 11 kts 296°
2026-05-06 12:12 48.11723 16.55697 599 ft 12 kts 296°
2026-05-06 12:12 48.11757 16.55593 598 ft 11 kts 295°
2026-05-06 12:12 48.11794 16.55477 595 ft 9 kts 296°
2026-05-06 12:13 48.11832 16.55421 593 ft 7 kts 348°
2026-05-06 12:13 48.11874 16.55435 593 ft 3 kts
2026-05-06 12:13 48.11896 16.55436 593 ft 3 kts
2026-05-06 12:13 48.11918 16.55440 593 ft 3 kts
2026-05-06 12:14 48.11938 16.55453 594 ft 3 kts 25°
2026-05-06 12:14 48.11965 16.55471 593 ft 6 kts 25°
2026-05-06 12:14 48.11996 16.55496 593 ft 4 kts 40°
2026-05-06 12:14 48.11994 16.55521 593 ft 3 kts 101°
2026-05-06 12:15 48.11990 16.55552 593 ft 0 kts 101°
2026-05-06 12:15 48.11988 16.55567 593 ft 3 kts 102°
2026-05-06 12:15 48.11987 16.55576 593 ft 0 kts 101°